User: anonymous   Login
Location: Agadir-Ikarkaouin
(31.1503°N, 9.0246°W)
Time: 20:27:01
(UTC+00:00)
Language:

DELTA 2 R/B (1) - Orbit

View from above orbital plane
View from above orbital plane
View from above satellite
View from above satellite

Ground track
Ground track

The orbit data is extracted from the following two-line orbital elements,

1 27665U 03005C   20331.97404802 -.00000100 +00000-0 -58494-5 0  9995
2 27665 039.5743 180.2624 0008896 182.7817 335.0485 14.28538145930884
Epoch (UTC): 26 November 2020 23:22:37
Eccentricity: 0.0008896
inclination: 39.5743°
perigee height: 790 km
apogee height: 803 km
right ascension of ascending node: 180.2624°
argument of perigee: 182.7817°
revolutions per day: 14.28538145
mean anomaly at epoch: 335.0485°
orbit number at epoch: 93088

The dashed part of the orbit path shows where the satellite is in the earth's shadow,  

DLR